Luverne, MN

6:16 PM CDT on October 18, 2017 (GMT -0500)
Luverne

Weather History for KLYV - February, 2013

Change the Weather History Date:

Wednesday, February 6, 2013

  Actual Average (KPQN) Record (KPQN)
Temperature  
Mean Temperature 31 °F -  
Max Temperature 41 °F 27 °F 51 °F (2002)
Min Temperature 21 °F 10 °F -11 °F (2014)
Degree Days  
Heating Degree Days 34    
Moisture  
Dew Point 28 °F    
Average Humidity 87    
Maximum Humidity 100    
Minimum Humidity 70    
Precipitation  
Precipitation 0.00 in - - ()
Sea Level Pressure  
Sea Level Pressure 29.90 in    
Wind  
Wind Speed 6 mph (South)    
Max Wind Speed 20 mph    
Max Gust Speed 26 mph    
Visibility 8 miles    
Events      
Averages and records for this station are not official NWS values.
T = Trace of Precipitation, MM = Missing Value Source: NWS Daily Summary

Daily Weather History Graph

Daily Weather History Graph

Search for Another Location

Airport or City:

Trip Planner

Search our weather history database for the weather conditions in past years. The results will help you decide how hot, cold, wet, or windy it might be!

Date:

Astronomy

Feb. 06, 2013 Rise Set
Actual Time 7:35 AM CST 5:43 PM CST
Civil Twilight 7:05 AM CST 6:13 PM CST
Nautical Twilight 6:31 AM CST 6:47 PM CST
Astronomical Twilight 5:57 AM CST 7:20 PM CST
Moon 4:23 AM CST (2/6) 1:59 PM CST (2/6)
Length of Visible Light 11h 08m
Length of Day
10h 08m
Waning Crescent, 17% of the Moon is Illuminated
Feb 6
Waning Crescent
Feb 10
New
Feb 17
First Quarter
Feb 25
Full
Mar 4
Last Quarter

Hourly Weather History & Observations

Time (CST) Temp. Windchill Dew Point Humidity Pressure Visibility Wind Dir Wind Speed Gust Speed Precip Events Conditions
12:16 AM 21.2 °F - 19.4 °F 93% 30.02 in 5.0 mi Calm Calm - N/A   Clear
12:36 AM 23.0 °F - 19.4 °F 86% 30.01 in 7.0 mi Calm Calm - N/A   Clear
1:16 AM 23.0 °F - 21.2 °F 93% 30.01 in 7.0 mi Calm Calm - N/A   Clear
1:36 AM 23.0 °F 18.4 °F 19.4 °F 86% 30.02 in 7.0 mi South 3.5 mph - N/A   Clear
1:56 AM 21.2 °F 16.4 °F 19.4 °F 93% 30.02 in 5.0 mi SSW 3.5 mph - N/A   Clear
2:16 AM 21.2 °F 16.4 °F 19.4 °F 93% 30.02 in 5.0 mi SE 3.5 mph - N/A   Scattered Clouds
2:36 AM 23.0 °F 17.0 °F 21.2 °F 93% 30.03 in 7.0 mi SSE 4.6 mph - N/A   Scattered Clouds
2:56 AM 23.0 °F 15.8 °F 21.2 °F 93% 30.02 in 7.0 mi SSE 5.8 mph - N/A   Overcast
3:16 AM 23.0 °F 15.8 °F 21.2 °F 93% 30.01 in 7.0 mi SE 5.8 mph - N/A   Overcast
3:36 AM 23.0 °F 15.8 °F 21.2 °F 93% 30.00 in 7.0 mi SSE 5.8 mph - N/A   Scattered Clouds
3:56 AM 23.0 °F 15.8 °F 21.2 °F 93% 29.99 in 7.0 mi SE 5.8 mph - N/A   Mostly Cloudy
4:16 AM 24.8 °F 16.9 °F 21.2 °F 86% 30.00 in 7.0 mi SSE 6.9 mph - N/A   Overcast
4:36 AM 24.8 °F 16.9 °F 21.2 °F 86% 29.99 in 7.0 mi SSE 6.9 mph - N/A   Overcast
4:56 AM 24.8 °F 16.1 °F 23.0 °F 93% 29.98 in 7.0 mi SE 8.1 mph - N/A   Overcast
5:17 AM 26.6 °F 19.1 °F 23.0 °F 86% 29.99 in 7.0 mi SSE 6.9 mph - N/A   Overcast
5:36 AM 26.6 °F 18.2 °F 23.0 °F 86% 29.97 in 5.0 mi SE 8.1 mph - N/A   Overcast
6:17 AM 26.6 °F 17.5 °F 23.0 °F 86% 29.96 in 7.0 mi SSE 9.2 mph - N/A   Overcast
6:36 AM 26.6 °F 16.8 °F 23.0 °F 86% 29.95 in 7.0 mi SE 10.4 mph - N/A   Overcast
6:56 AM 26.6 °F 17.5 °F 23.0 °F 86% 29.94 in 7.0 mi SE 9.2 mph - N/A   Overcast
7:16 AM 26.6 °F 16.8 °F 23.0 °F 86% 29.92 in 7.0 mi SSE 10.4 mph - N/A   Overcast
7:36 AM 28.4 °F 19.1 °F 23.0 °F 80% 29.92 in 7.0 mi SSE 10.4 mph - N/A   Mostly Cloudy
7:56 AM 28.4 °F 18.0 °F 23.0 °F 80% 29.92 in 7.0 mi SSE 12.7 mph - N/A   Mostly Cloudy
8:16 AM 28.4 °F 18.5 °F 24.8 °F 86% 29.92 in 5.0 mi SSE 11.5 mph - N/A   Scattered Clouds
8:36 AM 28.4 °F 19.1 °F 24.8 °F 86% 29.91 in 7.0 mi SSE 10.4 mph - N/A   Clear
8:56 AM 30.2 °F 20.2 °F 26.6 °F 86% 29.90 in 5.0 mi SSE 12.7 mph - N/A   Clear
9:16 AM 30.2 °F 20.2 °F 26.6 °F 86% 29.90 in 7.0 mi SSE 12.7 mph 17.3 mph N/A   Clear
9:36 AM 32.0 °F 22.5 °F 26.6 °F 80% 29.88 in 7.0 mi SSE 12.7 mph 18.4 mph N/A   Clear
9:56 AM 32.0 °F 22.5 °F 28.4 °F 87% 29.88 in 7.0 mi SSE 12.7 mph - N/A   Clear
10:16 AM 32.0 °F 21.2 °F 28.4 °F 87% 29.87 in 7.0 mi South 16.1 mph 20.7 mph N/A   Clear
10:36 AM 33.8 °F 23.5 °F 30.2 °F 87% 29.86 in 10.0 mi South 16.1 mph 19.6 mph N/A   Clear
10:56 AM 33.8 °F 23.9 °F 30.2 °F 87% 29.87 in 10.0 mi South 15.0 mph 18.4 mph N/A   Clear
11:16 AM 37.4 °F 28.2 °F 32.0 °F 81% 29.87 in 10.0 mi SSW 16.1 mph - N/A   Clear
11:36 AM 37.4 °F 27.5 °F 32.0 °F 81% 29.87 in 10.0 mi SSW 18.4 mph 24.2 mph N/A   Clear
11:56 AM 37.4 °F 27.2 °F 32.0 °F 81% 29.86 in 10.0 mi SSW 19.6 mph 26.5 mph N/A   Clear
12:17 PM 41.0 °F 32.2 °F 32.0 °F 70% 29.85 in 10.0 mi SSW 18.4 mph 24.2 mph N/A   Clear
12:36 PM 39.2 °F 31.2 °F 32.0 °F 75% 29.84 in 10.0 mi SSW 13.8 mph - N/A   Clear
12:56 PM 37.4 °F 28.9 °F 32.0 °F 81% 29.82 in 10.0 mi SSW 13.8 mph - N/A   Clear
1:16 PM 39.2 °F 30.8 °F 32.0 °F 75% 29.81 in 10.0 mi SSW 15.0 mph - N/A   Clear
1:36 PM 41.0 °F 33.1 °F 32.0 °F 70% 29.81 in 10.0 mi SSW 15.0 mph - N/A   Clear
1:56 PM 41.0 °F 33.9 °F 32.0 °F 70% 29.81 in 10.0 mi SSW 12.7 mph - N/A   Clear
2:16 PM 41.0 °F 34.3 °F 32.0 °F 70% 29.80 in 10.0 mi SSW 11.5 mph - N/A   Clear
2:36 PM 41.0 °F 34.7 °F 32.0 °F 70% 29.81 in 10.0 mi SSW 10.4 mph - N/A   Clear
2:56 PM 41.0 °F 38.0 °F 32.0 °F 70% 29.81 in 10.0 mi SW 4.6 mph - N/A   Clear
3:36 PM 41.0 °F 37.1 °F 33.8 °F 76% 29.81 in 10.0 mi SSW 5.8 mph - N/A   Clear
3:56 PM 39.2 °F 34.2 °F 33.8 °F 81% 29.81 in 10.0 mi SSW 6.9 mph - N/A   Clear
4:16 PM 37.4 °F 32.8 °F 33.8 °F 87% 29.82 in 10.0 mi SSW 5.8 mph - N/A   Scattered Clouds
4:36 PM 37.4 °F 32.8 °F 33.8 °F 87% 29.82 in 10.0 mi SSW 5.8 mph - N/A   Scattered Clouds
4:56 PM 37.4 °F 32.8 °F 32.0 °F 81% 29.82 in 10.0 mi SSW 5.8 mph - N/A   Scattered Clouds
5:16 PM 35.6 °F 31.7 °F 32.0 °F 87% 29.83 in 10.0 mi SSW 4.6 mph - N/A   Clear
5:36 PM 35.6 °F - 32.0 °F 87% 29.83 in 10.0 mi Calm Calm - N/A   Scattered Clouds
5:56 PM 35.6 °F - 32.0 °F 87% 29.84 in 10.0 mi Calm Calm - N/A   Scattered Clouds
6:16 PM 33.8 °F - 32.0 °F 93% 29.84 in 10.0 mi Calm Calm - N/A   Scattered Clouds
6:36 PM 35.6 °F - 32.0 °F 87% 29.85 in 10.0 mi Calm Calm - N/A   Clear
6:56 PM 33.8 °F - 32.0 °F 93% 29.86 in 10.0 mi Calm Calm - N/A   Mostly Cloudy
7:16 PM 33.8 °F - 32.0 °F 93% 29.86 in 10.0 mi Calm Calm - N/A   Scattered Clouds
7:36 PM 33.8 °F - 32.0 °F 93% 29.87 in 10.0 mi Calm Calm - N/A   Scattered Clouds
7:56 PM 33.8 °F - 32.0 °F 93% 29.87 in 10.0 mi Calm Calm - N/A   Mostly Cloudy
8:17 PM 33.8 °F - 32.0 °F 93% 29.88 in 10.0 mi Calm Calm - N/A   Mostly Cloudy
8:36 PM 32.0 °F - 32.0 °F 100% 29.89 in 7.0 mi Calm Calm - N/A   Scattered Clouds
8:56 PM 32.0 °F - 32.0 °F 100% 29.89 in 7.0 mi Calm Calm - N/A   Mostly Cloudy
9:17 PM 33.8 °F - 32.0 °F 93% 29.89 in 10.0 mi Calm Calm - N/A   Scattered Clouds
9:36 PM 32.0 °F - 32.0 °F 100% 29.90 in 7.0 mi Calm Calm - N/A   Scattered Clouds
9:56 PM 32.0 °F - 30.2 °F 93% 29.90 in 7.0 mi Calm Calm - N/A   Clear
10:16 PM 32.0 °F - 30.2 °F 93% 29.91 in 7.0 mi Calm Calm - N/A   Clear
10:36 PM 32.0 °F - 32.0 °F 100% 29.91 in 7.0 mi Calm Calm - N/A   Mostly Cloudy
10:56 PM 33.8 °F 30.8 °F 32.0 °F 93% 29.92 in 7.0 mi NNW 3.5 mph - N/A   Scattered Clouds
11:16 PM 33.8 °F 27.7 °F 32.0 °F 93% 29.92 in 7.0 mi NNW 6.9 mph - N/A   Mostly Cloudy
11:36 PM 33.8 °F 28.6 °F 32.0 °F 93% 29.92 in 10.0 mi NNW 5.8 mph - N/A   Overcast
11:56 PM 33.8 °F - 32.0 °F 93% 29.92 in 10.0 mi Calm Calm - N/A   Overcast